Lancaster, OH

1:56 PM EDT on September 29, 2016 (GMT -0400)
Fairfield County

Weather History for KLHQ - March, 2013

Change the Weather History Date:

Thursday, March 21, 2013

  Actual Average Record
Temperature  
Mean Temperature 24 °F -  
Max Temperature 30 °F 50 °F 84 °F (2012)
Min Temperature 18 °F 31 °F 14 °F (1965)
Degree Days  
Heating Degree Days 41    
Moisture  
Dew Point 13 °F    
Average Humidity 68    
Maximum Humidity 86    
Minimum Humidity 47    
Precipitation  
Precipitation 0.00 in - - ()
Sea Level Pressure  
Sea Level Pressure 29.97 in    
Wind  
Wind Speed 7 mph (WNW)    
Max Wind Speed 13 mph    
Max Gust Speed 21 mph    
Visibility 7 miles    
Events Snow    
Averages and records for this station are not official NWS values.
T = Trace of Precipitation, MM = Missing Value Source: NWS Daily Summary

Daily Weather History Graph

Daily Weather History Graph

Search for Another Location

Airport or City:

Trip Planner

Search our weather history database for the weather conditions in past years. The results will help you decide how hot, cold, wet, or windy it might be!

Date:

Astronomy

Mar. 21, 2013 Rise Set
Actual Time 7:32 AM EDT 7:43 PM EDT
Civil Twilight 7:05 AM EDT 8:10 PM EDT
Nautical Twilight 6:33 AM EDT 8:42 PM EDT
Astronomical Twilight 6:01 AM EDT 9:14 PM EDT
Moon 2:13 PM EDT (3/21) 3:52 AM EDT (3/21)
Length of Visible Light 13h 05m
Length of Day
12h 11m
Waxing Gibbous, 68% of the Moon is Illuminated
Mar 21
Waxing Gibbous
Mar 27
Full
Apr 3
Last Quarter
Apr 10
New
Apr 18
First Quarter

Hourly Weather History & Observations

Time (EDT) Temp. Windchill Dew Point Humidity Pressure Visibility Wind Dir Wind Speed Gust Speed Precip Events Conditions
12:53 AM 21.9 °F 14.5 °F 9.0 °F 58% 29.98 in 10.0 mi West 5.8 mph - N/A   Clear
1:53 AM 19.9 °F 13.4 °F 9.0 °F 62% 29.97 in 10.0 mi West 4.6 mph - N/A   Clear
2:53 AM 19.0 °F 12.3 °F 9.0 °F 65% 29.97 in 10.0 mi West 4.6 mph - N/A   Partly Cloudy
3:53 AM 21.9 °F 11.7 °F 12.9 °F 68% 29.96 in 10.0 mi NNW 9.2 mph - N/A   Mostly Cloudy
4:39 AM 19.4 °F 10.4 °F 15.8 °F 86% 29.92 in 2.5 mi NNW 6.9 mph - 0.00 in Snow Light Snow
4:41 AM 19.4 °F 8.6 °F 15.8 °F 86% 29.92 in 2.0 mi NNW 9.2 mph - 0.00 in Snow Light Snow
4:49 AM 19.4 °F 10.4 °F 15.8 °F 86% 29.92 in 1.2 mi NNW 6.9 mph - 0.00 in Snow Light Snow
4:53 AM 19.9 °F 11.1 °F 15.1 °F 81% 29.95 in 1.5 mi NNW 6.9 mph - 0.00 in Snow Light Snow
4:57 AM 19.4 °F 10.4 °F 15.8 °F 86% 29.92 in 2.0 mi NNW 6.9 mph - 0.00 in Snow Light Snow
5:00 AM 19.4 °F 10.4 °F 14.0 °F 80% 29.92 in 3.0 mi NNW 6.9 mph - 0.00 in Snow Light Snow
5:53 AM 19.0 °F 12.3 °F 12.0 °F 74% 29.95 in 10.0 mi NW 4.6 mph - 0.00 in   Overcast
6:53 AM 18.0 °F 11.1 °F 10.9 °F 74% 29.95 in 10.0 mi West 4.6 mph - N/A   Overcast
7:53 AM 18.0 °F 11.1 °F 12.0 °F 78% 29.96 in 7.0 mi WNW 4.6 mph - N/A   Overcast
8:53 AM 21.0 °F 14.6 °F 14.0 °F 74% 29.97 in 2.0 mi WNW 4.6 mph - 0.00 in Snow Light Snow
8:57 AM 19.4 °F 10.4 °F 14.0 °F 80% 29.94 in 1.5 mi NW 6.9 mph - 0.00 in Snow Light Snow
9:03 AM 19.4 °F 11.5 °F 14.0 °F 80% 29.94 in 0.8 mi WNW 5.8 mph - 0.00 in Snow Light Snow
9:15 AM 19.4 °F 11.5 °F 15.8 °F 86% 29.94 in 1.2 mi West 5.8 mph - 0.00 in Snow Light Snow
9:18 AM 19.4 °F 10.4 °F 14.0 °F 80% 29.94 in 3.0 mi WNW 6.9 mph - 0.00 in Snow Light Snow
9:31 AM 21.2 °F 12.6 °F 12.2 °F 68% 29.94 in 10.0 mi NW 6.9 mph - 0.00 in   Scattered Clouds
9:53 AM 21.9 °F 12.5 °F 10.0 °F 60% 29.98 in 10.0 mi NW 8.1 mph - 0.00 in   Partly Cloudy
10:53 AM 23.0 °F 11.1 °F 10.0 °F 58% 29.99 in 10.0 mi NW 12.7 mph - N/A   Mostly Cloudy
11:53 AM 24.1 °F 12.5 °F 10.0 °F 55% 30.00 in 10.0 mi NNW 12.7 mph - N/A   Overcast
12:53 PM 24.1 °F 16.0 °F 9.0 °F 53% 29.99 in 10.0 mi WNW 6.9 mph - N/A   Overcast
1:53 PM 27.0 °F 18.0 °F 10.9 °F 51% 30.00 in 10.0 mi WNW 9.2 mph - N/A   Overcast
2:53 PM 27.0 °F 17.3 °F 12.9 °F 56% 29.99 in 10.0 mi West 10.4 mph 20.7 mph N/A   Overcast
3:53 PM 30.0 °F 20.0 °F 12.0 °F 47% 29.97 in 10.0 mi WNW 12.7 mph - 0.00 in   Mostly Cloudy
4:53 PM 28.9 °F 19.2 °F 12.9 °F 51% 29.99 in 10.0 mi West 11.5 mph - N/A   Overcast
5:53 PM 28.9 °F 20.4 °F 15.1 °F 56% 30.00 in 10.0 mi West 9.2 mph - 0.00 in   Overcast
6:53 PM 28.9 °F 21.1 °F 16.0 °F 58% 30.00 in 8.0 mi West 8.1 mph 16.1 mph 0.00 in Snow Light Snow
7:53 PM 27.0 °F 18.7 °F 19.0 °F 72% 30.01 in 5.0 mi West 8.1 mph - 0.00 in Snow Light Snow
8:53 PM 28.0 °F 22.8 °F 16.0 °F 61% 30.01 in 10.0 mi West 4.6 mph - 0.00 in   Overcast
9:53 PM 28.0 °F 20.8 °F 16.0 °F 61% 30.02 in 10.0 mi West 6.9 mph - N/A   Overcast
10:53 PM 28.0 °F 19.3 °F 17.1 °F 63% 30.02 in 10.0 mi West 9.2 mph - N/A   Overcast
11:53 PM 26.1 °F 19.4 °F 17.1 °F 69% 30.03 in 10.0 mi West 5.8 mph - N/A   Mostly Cloudy